This demonstration page uses our WeatherBlox Daily Observations layout. Learn more.

Left ArrowRight Arrow

40.92945, -100.16068

Hourly Observations for February 17, 2016

Temp ( °F °C ) Dew Point ( °F °C ) Humidity (%) Winds ( mph kmh ) Pressure ( in mb ) Visibility ( mi km ) Precip ( " mm )
12:15 am 00:15 Cloudy 40 4.6 29 -1.8 64 64 SSW 12 19 30 1016 10 16.0934 N/A
12:35 am 00:35 Partly Cloudy 40 4.4 28 -2 63 63 S 9 15 30 1016 10 16.0934 N/A
12:55 am 00:55 Clear 37 2.9 28 -2.1 70 70 SSW 5 7 30.06 1018 10 16.0934 N/A
1:15 am 01:15 Clear 37 2.5 28 -2.2 71 71 SSW 5 7 30.06 1018 10 16.0934 N/A
1:35 am 01:35 Clear 36 2.4 28 -2.4 71 71 N N/A 30.06 1018 10 16.0934 N/A
1:55 am 01:55 Clear 34 1 27 -2.6 77 77 N N/A 30.06 1018 10 16.0934 N/A
2:15 am 02:15 Clear 32 -0.1 26 -3.3 79 79 W 6 9 30.09 1019 10 16.0934 N/A
2:35 am 02:35 Clear 31 -0.3 27 -2.7 84 84 WNW 7 11 30.12 1020 10 16.0934 N/A
2:55 am 02:55 Clear 31 -0.4 27 -2.8 84 84 W 7 11 30.09 1019 10 16.0934 N/A
3:15 am 03:15 Clear 31 -0.3 27 -2.7 84 84 W 6 9 30.09 1019 10 16.0934 N/A
3:35 am 03:35 Clear 29 -1.7 25 -3.7 86 86 WNW 5 7 30.09 1019 10 16.0934 N/A
3:55 am 03:55 Clear 29 -1.5 26 -3.5 86 86 WNW 7 11 30.09 1019 10 16.0934 N/A
4:15 am 04:15 Clear 29 -1.7 26 -3.6 87 87 NW 7 11 30.09 1019 10 16.0934 N/A
4:35 am 04:35 Clear 28 -2.1 25 -4 87 87 W 6 9 30.12 1020 10 16.0934 N/A
4:55 am 04:55 Clear 30 -1.2 27 -3 88 88 WNW 7 11 30.12 1020 10 16.0934 N/A
5:15 am 05:15 Clear 30 -1 26 -3.1 86 86 WNW 7 11 30.12 1020 10 16.0934 N/A
5:35 am 05:35 Clear 30 -1 27 -3 86 86 WNW 7 11 30.15 1021 10 16.0934 N/A
5:55 am 05:55 Clear 30 -1 27 -3 86 86 W 8 13 30.15 1021 10 16.0934 N/A
6:15 am 06:15 Clear 31 -0.5 27 -2.7 85 85 WNW 7 11 30.15 1021 10 16.0934 N/A
6:35 am 06:35 Clear 29 -1.6 26 -3.6 86 86 W 7 11 30.18 1022 10 16.0934 N/A
6:55 am 06:55 Clear 29 -1.8 26 -3.5 88 88 WNW 7 11 30.18 1022 10 16.0934 N/A
7:15 am 07:15 Clear 29 -1.6 26 -3.5 87 87 WNW 6 9 30.18 1022 10 16.0934 N/A
7:35 am 07:35 Sunny 29 -1.8 26 -3.5 88 88 W 7 11 30.18 1022 10 16.0934 N/A
7:55 am 07:55 Sunny 29 -1.5 26 -3.2 88 88 W 6 9 30.15 1021 10 16.0934 N/A
8:15 am 08:15 Sunny 31 -0.6 28 -2.5 87 87 W 6 9 30.15 1021 10 16.0934 N/A
8:35 am 08:35 Sunny 32 0.2 28 -2 85 85 W 6 9 30.15 1021 10 16.0934 N/A
8:55 am 08:55 Sunny 35 1.4 29 -1.6 81 81 WNW 6 9 30.12 1020 10 16.0934 N/A
9:15 am 09:15 Sunny 36 2.4 30 -1 79 79 WNW 6 9 30.12 1020 10 16.0934 N/A
9:35 am 09:35 Sunny 38 3.2 31 -0.5 77 77 NW 6 9 30.12 1020 10 16.0934 N/A
9:55 am 09:55 Sunny 40 4.2 32 undefined 74 74 NNW 5 7 30.09 1019 10 16.0934 N/A
10:15 am 10:15 Sunny 42 5.7 33 0.4 69 69 N N/A 30.09 1019 10 16.0934 N/A
10:35 am 10:35 Sunny 44 6.6 33 0.6 66 66 N N/A 30.09 1019 10 16.0934 N/A
10:55 am 10:55 Sunny 46 8 34 1.3 63 63 N N/A 30.06 1018 10 16.0934 N/A
11:15 am 11:15 Sunny 49 9.5 34 1.3 57 57 N N/A 30.06 1018 10 16.0934 N/A
11:35 am 11:35 Sunny 51 10.8 36 2 55 55 N N/A 30.03 1017 10 16.0934 N/A
11:55 am 11:55 Sunny 53 11.5 35 1.6 51 51 E 3 6 30.03 1017 10 16.0934 N/A
12:15 pm 12:15 Sunny 55 13 36 2 47 47 ESE 6 9 30.03 1017 10 16.0934 N/A
12:35 pm 12:35 Sunny 56 13.2 35 1.7 46 46 ESE 8 13 30.03 1017 10 16.0934 N/A
12:55 pm 12:55 Sunny 57 13.7 35 1.9 45 45 SE 9 15 30 1016 10 16.0934 N/A
1:15 pm 13:15 Sunny 57 13.8 36 2.2 46 46 ESE 9 15 30 1016 10 16.0934 N/A
1:35 pm 13:35 Sunny 58 14.2 35 1.8 43 43 SSE 9 15 30 1016 10 16.0934 N/A
1:55 pm 13:55 Sunny 56 13.5 34 1.1 43 43 SSE 10 17 30 1016 10 16.0934 N/A
2:15 pm 14:15 Sunny 56 13.6 36 2.4 47 47 S 10 17 30 1016 10 16.0934 N/A
2:35 pm 14:35 Sunny 56 13.4 36 2.3 47 47 SSE 10 17 30 1016 10 16.0934 N/A
2:55 pm 14:55 Sunny 55 13 35 1.7 46 46 SSE 9 15 30 1016 10 16.0934 N/A
3:15 pm 15:15 Sunny 55 12.5 36 2.1 49 49 SSE 10 17 30 1016 10 16.0934 N/A
3:35 pm 15:35 Sunny 54 12.1 36 2.2 51 51 SSE 8 13 30 1016 10 16.0934 N/A
3:55 pm 15:55 Sunny 54 12.1 37 2.6 53 53 SE 9 15 30 1016 10 16.0934 N/A
4:15 pm 16:15 Sunny 54 12 37 2.7 53 53 SSE 7 11 30 1016 10 16.0934 N/A
4:35 pm 16:35 Sunny 53 11.7 38 3.2 56 56 SSE 9 15 29.97 1015 10 16.0934 N/A
4:55 pm 16:55 Sunny 52 10.9 38 3.2 59 59 SSE 8 13 29.97 1015 10 16.0934 N/A
5:15 pm 17:15 Sunny 50 10.1 38 3.5 64 64 SE 7 11 29.97 1015 10 16.0934 N/A
5:35 pm 17:35 Sunny 50 10.1 38 3.3 63 63 SE 8 13 29.97 1015 10 16.0934 N/A
5:55 pm 17:55 Sunny 49 9.4 38 3.3 66 66 SE 7 11 30 1016 10 16.0934 N/A
6:15 pm 18:15 Sunny 49 9.2 38 3.1 66 66 SE 7 11 30 1016 10 16.0934 N/A
6:35 pm 18:35 Clear 48 8.7 38 3.1 68 68 SE 7 11 30 1016 10 16.0934 N/A
6:55 pm 18:55 Clear 46 8 37 3 71 71 SE 8 13 30 1016 10 16.0934 N/A
7:15 pm 19:15 Clear 45 7.4 37 3 74 74 SE 8 13 30 1016 10 16.0934 N/A
7:35 pm 19:35 Clear 45 7.2 37 2.6 73 73 SE 8 13 30 1016 10 16.0934 N/A
7:55 pm 19:55 Clear 44 6.7 37 2.5 75 75 SE 8 13 30 1016 10 16.0934 N/A
8:15 pm 20:15 Clear 44 6.6 36 2.3 74 74 ESE 9 15 29.97 1015 10 16.0934 N/A
8:35 pm 20:35 Clear 43 6.2 36 2.1 75 75 SE 10 17 30 1016 10 16.0934 N/A
8:55 pm 20:55 Clear 43 6.1 36 2 75 75 SE 12 19 29.94 1014 10 16.0934 N/A
9:15 pm 21:15 Clear 42 5.6 35 1.7 76 76 SE 9 15 29.94 1014 10 16.0934 N/A
9:35 pm 21:35 Clear 42 5.5 35 1.5 76 76 SE 7 11 29.94 1014 10 16.0934 N/A
9:55 pm 21:55 Clear 43 6 34 1.1 71 71 SE 9 15 29.94 1014 10 16.0934 N/A
10:15 pm 22:15 Clear 43 6.1 33 0.8 69 69 SE 9 15 29.94 1014 10 16.0934 N/A
10:35 pm 22:35 Clear 44 6.4 33 0.5 66 66 SE 9 15 29.91 1013 10 16.0934 N/A
10:55 pm 22:55 Clear 43 6.3 32 0.1 65 65 SSE 10 17 29.91 1013 10 16.0934 N/A
11:15 pm 23:15 Clear 44 6.4 32 undefined 64 64 SSE 9 15 29.91 1013 10 16.0934 N/A
11:35 pm 23:35 Clear 43 6.3 32 undefined 64 64 SSE 9 15 29.91 1013 10 16.0934 N/A
11:55 pm 23:55 Clear 44 6.4 32 undefined 64 64 SE 9 15 29.88 1012 10 16.0934 N/A

Powered by AerisWeather